{"data":{"norad_id":51860,"epoch":"2026-09-19T11:58:37.985664Z","epoch_age_seconds":138720,"freshness":"FRESH","line1":"1 51860U 22022J   26262.49905076 -.00000372  00000+0  14097-6 0  9995","line2":"2 51860  53.1620 208.0968 0001440  85.0690 275.0477 15.34387001252529","mean_motion":15.34387001,"eccentricity":0.000144,"inclination_deg":53.162,"raan_deg":208.0968,"arg_perigee_deg":85.069,"mean_anomaly_deg":275.0477,"bstar":1.4097e-7,"rev_number":25252,"period_min":93.848553139561,"perigee_km":461.7567896891,"apogee_km":463.72696280546,"semimajor_km":6840.8788762473,"source":"CELESTRAK","updated_at":"2026-09-20T09:00:39.945948Z"}}